Location: Unspecified
(54.1780°N, 0.0000°E)
Time: 17:54:57
(UTC+00:00)

Tiros 1 - Pass Details

Date: 18 June 2019
Orbit: 630 x 664 km, 48.4° (Epoch: 15 July)

Event Time Altitude Azimuth Distance (km) Brightness Sun altitude
Rises 06:08:33 0° 273° (W) 2,923 9.9 19.9°
Reaches altitude 10° 06:11:20 10° 257° (WSW) 2,010 9.2 20.2°
Maximum altitude 06:14:45 21° 209° (SSW) 1,428 8.7 20.7°
Drops below altitude 10° 06:18:10 10° 161° (SSE) 2,004 9.9 21.2°
Sets 06:20:56 0° 145° (SE) 2,911 10.8 21.6°
